Content
SEND FEEDBACK

Daily
Averages
Monthly
Summary
Canada

VANCOUVER, BRITISH COLUMBIA


Home > North America > Canada > British Columbia
Elevation: 7 feet     Latitude: 49 11N     Longitude: 123 10W

WEATHER
 
SELECT A DAY
Number of Records: 254,882;   Date Range: 5/15/97 - 12/18/14
 
SHARE

PRINT THIS DATA

[ ← Previous Day ]
WEATHER ALMANAC - JULY 6, 2013
[ Next Day → ]
[ °C ]   °F
Weather ElementAverageHighLow
Temperature63.6 °F71.6 °F (6:15 pm)55.4 °F (2:15 am)
Dewpoint55.7 °F57.2 °F (5:55 am)51.8 °F (2:35 am)
Humidity75.9 %94 % (2:15 am)53 % (7:35 pm)
Barometer29.93 in29.98 in (2:35 am)29.85 in (7:35 pm)
Wind Speed5.7 mph12.7 mph (9:15 am)
Wind Gust17.3 mph (6:55 am)
Weather ElementAverage
Visibility9 mi
Wind DirectionSW (224.9 °)

Weather ElementTotal
Precipitation---
Heating Degree Days1.5 (Base 65)
Growing Degree Days13.5 (Base 50)
Averaged from 71 records on July 6, 2013
WEATHER CONDITIONS BREAKOUT
WIND DIRECTION BREAKOUT
WEATHER BY HOUR - JULY 6, 2013
[ °C ]   °F
Local TimeTemperatureDewpointHumidityBarometerVisibilityWind DirectionWind SpeedGust SpeedPrecipitationEventsConditions
12:35 AM59.0 °F53.6 °F82 %29.96 in10.0 miCalmClear
12:55 AM59.0 °F53.6 °F82 %29.97 in10.0 miCalmClear
1:15 AM57.2 °F53.6 °F88 %29.97 in10.0 miCalmClear
1:35 AM57.2 °F53.6 °F88 %29.97 in10.0 miCalmClear
1:55 AM57.2 °F53.6 °F88 %29.97 in9.0 miCalmClear
2:15 AM55.4 °F53.6 °F94 %29.97 in9.0 miCalmClear
2:35 AM55.4 °F51.8 °F88 %29.98 in9.0 miCalmClear
2:55 AM59.0 °F53.6 °F82 %29.98 in10.0 miNorth (360°)4.6 mphClear
3:15 AM62.6 °F53.6 °F72 %29.98 in10.0 miNorth (360°)6.9 mphClear
3:35 AM62.6 °F53.6 °F72 %29.98 in10.0 miNorth (350°)6.9 mphClear
3:55 AM60.8 °F55.4 °F82 %29.97 in10.0 miNorth (360°)5.8 mphClear
4:15 AM60.8 °F55.4 °F82 %29.97 in10.0 miNorth (350°)9.2 mphClear
4:35 AM62.6 °F55.4 °F77 %29.97 in10.0 miNorth (350°)8.1 mphClear
4:55 AM60.8 °F55.4 °F82 %29.97 in10.0 miNorth (350°)9.2 mphClear
5:15 AM60.8 °F55.4 °F82 %29.97 in8.0 miNNW (340°)5.8 mphClear
5:35 AM60.8 °F55.4 °F82 %29.97 in8.0 miNNW (340°)8.1 mphClear
5:55 AM60.8 °F57.2 °F88 %29.96 in8.0 miNorth (350°)9.2 mphClear
6:15 AM60.8 °F55.4 °F82 %29.97 in8.0 miNNW (340°)9.2 mphClear
6:35 AM62.6 °F55.4 °F77 %29.97 in8.0 miNorth (350°)10.4 mphClear
6:55 AM62.6 °F57.2 °F82 %29.97 in8.0 miNNW (340°)9.2 mph17.3 mphClear
7:15 AM62.6 °F57.2 °F82 %29.98 in8.0 miNNW (340°)9.2 mphClear
7:35 AM62.6 °F57.2 °F82 %29.98 in8.0 miNorth (350°)9.2 mphClear
7:55 AM62.6 °F57.2 °F82 %29.98 in8.0 miNNW (340°)10.4 mphClear
8:15 AM62.6 °F57.2 °F82 %29.98 in8.0 miNorth (350°)9.2 mphClear
8:35 AM62.6 °F57.2 °F82 %29.98 in7.0 miNNW (340°)8.1 mphClear
8:55 AM62.6 °F57.2 °F82 %29.98 in9.0 miNorth (350°)10.4 mphClear
9:15 AM62.6 °F57.2 °F82 %29.98 in8.0 miNorth (350°)12.7 mph16.1 mphClear
9:35 AM62.6 °F57.2 °F82 %29.97 in8.0 miNorth (350°)10.4 mphClear
9:55 AM62.6 °F57.2 °F82 %29.97 in8.0 miNNW (340°)8.1 mphClear
10:15 AM62.6 °F57.2 °F82 %29.97 in8.0 miNNW (330°)11.5 mphClear
10:35 AM64.4 °F57.2 °F77 %29.97 in8.0 miNNW (340°)11.5 mphClear
10:55 AM64.4 °F57.2 °F77 %29.97 in9.0 miNorth (350°)9.2 mph16.1 mphClear
11:15 AM64.4 °F57.2 °F77 %29.97 in9.0 miNNW (340°)9.2 mphClear
11:35 AM64.4 °F57.2 °F77 %29.97 in8.0 miNNW (340°)9.2 mphClear
11:55 AM64.4 °F57.2 °F77 %29.97 in8.0 miNNW (340°)9.2 mphClear
12:15 PM64.4 °F57.2 °F77 %29.96 in8.0 miNNW (340°)6.9 mphClear
12:35 PM64.4 °F57.2 °F77 %29.96 in8.0 miNNW (340°)5.8 mphClear
12:55 PM64.4 °F57.2 °F77 %29.96 in8.0 miNNW (330°)8.1 mphClear
1:15 PM64.4 °F57.2 °F77 %29.95 in10.0 miNNW (340°)4.6 mphClear
1:35 PM64.4 °F57.2 °F77 %29.95 in9.0 miNNW (340°)6.9 mphClear
1:55 PM64.4 °F57.2 °F77 %29.94 in9.0 miNorth (350°)5.8 mphClear
2:15 PM64.4 °F57.2 °F77 %29.94 in8.0 miNNW (330°)6.9 mphClear
2:35 PM64.4 °F57.2 °F77 %29.93 in8.0 miCalmClear
2:55 PM64.4 °F57.2 °F77 %29.93 in8.0 miNNW (340°)3.5 mphClear
3:15 PM66.2 °F57.2 °F73 %29.92 in8.0 miNorth (360°)5.8 mphClear
3:35 PM66.2 °F57.2 °F73 %29.92 in9.0 miCalmClear
3:55 PM66.2 °F57.2 °F73 %29.91 in9.0 miCalmClear
4:15 PM68.0 °F57.2 °F68 %29.90 in10.0 miNNW (330°)4.6 mphClear
4:35 PM68.0 °F57.2 °F68 %29.90 in9.0 miCalmClear
4:55 PM68.0 °F57.2 °F68 %29.89 in10.0 miNorth (10°)4.6 mphClear
5:15 PM68.0 °F57.2 °F68 %29.89 in9.0 miCalmClear
5:35 PM68.0 °F57.2 °F68 %29.88 in8.0 miNorth (10°)4.6 mphClear
5:55 PM68.0 °F57.2 °F68 %29.87 in9.0 miCalmClear
6:15 PM71.6 °F57.2 °F60 %29.86 in9.0 miCalmClear
6:35 PM69.8 °F57.2 °F64 %29.86 in9.0 miCalmClear
6:55 PM71.6 °F55.4 °F57 %29.86 in10.0 miSouth (190°)5.8 mphClear
7:15 PM71.6 °F55.4 °F57 %29.86 in10.0 miSSW (200°)6.9 mphClear
7:35 PM71.6 °F53.6 °F53 %29.85 in10.0 miSouth (190°)4.6 mphClear
7:55 PM69.8 °F53.6 °F56 %29.85 in9.0 miSouth (170°)4.6 mphClear
8:15 PM68.0 °F53.6 °F60 %29.85 in9.0 miSouth (170°)5.8 mphClear
8:35 PM68.0 °F55.4 °F64 %29.85 in9.0 miSouth (170°)5.8 mphClear
8:55 PM66.2 °F53.6 °F64 %29.85 in10.0 miSouth (170°)4.6 mphClear
9:15 PM66.2 °F53.6 °F64 %29.85 in9.0 miSouth (190°)6.9 mphClear
9:35 PM64.4 °F53.6 °F68 %29.85 in9.0 miSouth (180°)6.9 mphClear
9:55 PM62.6 °F53.6 °F72 %29.86 in10.0 miSouth (180°)6.9 mphClear
10:15 PM62.6 °F53.6 °F72 %29.86 in10.0 miSouth (170°)5.8 mphClear
10:35 PM60.8 °F53.6 °F77 %29.86 in10.0 miSouth (180°)4.6 mphClear
10:55 PM60.8 °F53.6 °F77 %29.86 in10.0 miSouth (190°)8.1 mphClear
11:15 PM59.0 °F53.6 °F82 %29.87 in10.0 miSouth (180°)4.6 mphClear
11:35 PM59.0 °F53.6 °F82 %29.86 in10.0 miSouth (170°)4.6 mphClear
11:55 PM59.0 °F53.6 °F82 %29.86 in10.0 miSSE (160°)3.5 mphClear
Hourly data recorded from CZBB, located miles away from Vancouver, British Columbia







STORIES FROM OUR PARTNERS